Location: Fours
(44.3167°N, 6.7000°E)
Time: 10:09:25
(UTC+00:00)

Cosmos 2227 - Pass Details

Date: 09 December 2023
Orbit: 836 x 859 km, 71.0° (Epoch: 21 February)

Event Time Altitude Azimuth Distance (km) Brightness Sun altitude
Rises 17:08:13 0° 223° (SW) 3,421 8.6 -12.8°
Reaches altitude 10° 17:10:47 10° 230° (SW) 2,488 7.8 -13.2°
Maximum altitude 17:16:14 45° 302° (WNW) 1,156 5.2 -14.1°
Drops below altitude 10° 17:21:44 10° 15° (NNE) 2,492 6.3 -15.1°
Enters shadow 17:22:58 - 19° (NNE) 2,940 6.7 -15.3°
